[keps] orb10294.2l.amsat
Ray Hoad
ray.hoad at mypbmail.com
Thu Oct 21 18:44:24 PDT 2010
SB KEPS @ AMSAT $ORB10294.N
2Line Orbital Elements 10294.AMSAT
HR AMSAT ORBITAL ELEMENTS FOR AMATEUR SATELLITES IN NASA FORMAT
FROM WA5QGD FORT WORTH,TX October 21, 2010
BID: ORB10294.N
DECODE 2-LINE ELSETS WITH THE FOLLOWING KEY:
1 AAAAAU 00 0 0 BBBBB.BBBBBBBB .CCCCCCCC 00000-0 00000-0 0 DDDZ
2 AAAAA EEE.EEEE FFF.FFFF GGGGGGG HHH.HHHH III.IIII JJ.JJJJJJJJKKKKKZ
KEY: A-CATALOGNUM B-EPOCHTIME C-DECAY D-ELSETNUM E-INCLINATION F-RAAN
G-ECCENTRICITY H-ARGPERIGEE I-MNANOM J-MNMOTION K-ORBITNUM Z-CHECKSUM
TO ALL RADIO AMATEURS BT
AO-07
1 07530U 74089B 10294.61572409 -.00000027 00000-0 10000-3 0 9087
2 07530 101.4002 305.5678 0012289 026.5885 333.5809 12.53579833644297
FO-29
1 24278U 96046B 10293.97072939 -.00000049 00000-0 -15624-4 0 04216
2 24278 098.5174 105.7450 0350919 157.4361 204.2645 13.52953211700119
SO-33
1 25509U 98061B 10294.83554111 .00000215 00000-0 30121-4 0 8199
2 25509 031.4335 152.3083 0354461 317.2235 040.1325 14.28332545626174
RS-22
1 27939U 03042A 10294.75064656 .00000198 00000-0 46837-4 0 6520
2 27939 097.8722 154.7398 0014075 024.2183 335.9680 14.63465633377463
VO-52
1 28650U 05017B 10293.59897281 .00000491 00000-0 68304-4 0 06264
2 28650 097.6787 342.0414 0026056 224.7803 135.1292 14.81830800295260
SO-67
1 35870U 09049F 10294.89391402 .00001195 00000-0 56727-4 0 2155
2 35870 097.3175 340.5794 0003959 037.4206 080.4003 15.21124103 60716
HO-68
1 36122U 09072B 10294.80166252 -.00000045 00000-0 00000 0 0 7759
2 36122 100.4546 353.8620 0007796 050.3099 309.8699 13.16282296 40871
UO-11
1 14781U 84021B 10293.72140373 .00000380 00000-0 57517-4 0 03701
2 14781 098.0411 345.7379 0008746 186.6321 173.4797 14.79847522430370
AO-16
1 20439U 90005D 10294.73969448 .00000045 00000-0 32312-4 0 230
2 20439 098.3497 247.7674 0011334 146.5445 213.6456 14.31879169 83498
LO-19
1 20442U 90005G 10293.59928732 .00000166 00000-0 76979-4 0 09340
2 20442 098.3113 251.9682 0012636 145.1045 215.0959 14.32108814083509
AO-27
1 22825U 93061C 10294.86053582 .00000065 00000-0 42521-4 0 6559
2 22825 098.4990 239.6144 0007511 256.7458 103.2885 14.29312682890147
IO-26
1 22826U 93061D 10294.83326315 .00000056 00000-0 38618-4 0 3935
2 22826 098.4937 240.1431 0008032 250.7703 109.2610 14.29570442890255
GO-32
1 25397U 98043D 10294.65028664 -.00000162 00000-0 -53847-4 0 3124
2 25397 098.3175 295.1599 0000465 206.6393 153.4759 14.23186631638034
NO-44
1 26931U 01043C 10294.83189750 .00000045 00000-0 49881-4 0 5872
2 26931 067.0523 237.6751 0005563 271.0936 088.9531 14.29616862472859
SO-50
1 27607U 02058C 10294.61489588 .00000106 00000-0 38428-4 0 2980
2 27607 064.5597 332.4930 0044667 024.2495 336.0703 14.71590704420980
CO-55
1 27844U 03031E 10294.58079738 .00000086 00000-0 60055-4 0 9618
2 27844 098.7105 301.7520 0009692 161.8535 198.2990 14.20738466379031
CO-57
1 27848U 03031J 10293.57238946 .00000054 00000-0 45533-4 0 09088
2 27848 098.7160 299.8773 0009456 169.6967 190.4411 14.20527722378847
AO-51
1 28375U 04025K 10293.50899946 .00000038 00000-0 23913-4 0 08049
2 28375 098.0731 279.9455 0085015 076.7291 284.3368 14.40703957331558
GENESAT1
1 29655U 06058C 10216.61700559 .10637092 69904-5 33715-3 0 2265
2 29655 040.0059 067.3006 0005079 297.8744 064.7087 16.44862838207776
CP3
1 31129U 07012N 10293.54031115 .00000083 00000-0 29801-4 0 07039
2 31129 097.9280 326.3275 0101736 204.2901 155.3473 14.52318955186058
CO-65
1 32785U 08021C 10293.23249709 .00000688 00000-0 93795-4 0 08164
2 32785 097.8828 356.3374 0014028 235.5225 124.4648 14.81741754134008
KKS-1
1 33493U 09002B 10294.65840673 .00000863 00000-0 11768-3 0 9643
2 33493 098.0992 055.3402 0021171 092.0850 268.2792 14.81155992 94202
SOHLA-1
1 33496U 09002E 10294.87784542 .00000018 00000-0 11225-4 0 2354
2 33496 098.0674 042.3729 0007088 152.5889 207.5708 14.69524879 93487
TISAT-1
1 36799U 10035E 10294.67159780 .00000505 00000-0 73625-4 0 2385
2 36799 098.1350 355.2346 0014942 331.9912 028.0506 14.80201271 15023
STUDSAT
1 36801U 10035G 10293.76171783 .00001414 00000-0 19514-3 0 01133
2 36801 098.1363 354.2225 0013689 322.8011 037.2250 14.79727718014880
NOAA-10
1 16969U 86073A 10293.69507531 .00000026 00000-0 28592-4 0 02470
2 16969 098.6474 321.4253 0011667 202.4342 157.6331 14.27430434253489
NOAA-11
1 19531U 88089A 10293.75819318 -.00000229 00000-0 -96073-4 0 02569
2 19531 098.7663 020.6238 0011635 146.0071 214.1852 14.14937989138893
NOAA-12
1 21263U 91032A 10294.75096360 .00000116 00000-0 49050-4 0 7517
2 21263 098.7643 307.8895 0012670 155.5984 204.6284 14.25661100 10481
MET-3/5
1 21655U 91056A 10293.83265430 .00000051 00000-0 10000-3 0 09457
2 21655 082.5587 219.8536 0014747 038.8996 321.3192 13.17027324922213
MET-2/21
1 22782U 93055A 10293.90007598 -.00000004 00000-0 -17032-4 0 09180
2 22782 082.5479 152.7261 0023586 052.3379 307.9914 13.83648882865468
OKEAN-4
1 23317U 94066A 10293.69835905 .00000557 00000-0 65591-4 0 03712
2 23317 082.5400 236.6960 0021672 183.7040 176.4023 14.82879337865059
NOAA-14
1 23455U 94089A 10294.75170353 .00000121 00000-0 64108-4 0 2390
2 23455 098.8705 014.5619 0008639 234.7601 125.3246 14.13798288815472
NOAA-15
1 25338U 98030A 10294.76558059 .00000184 00000-0 78632-4 0 5676
2 25338 098.6337 279.5069 0011624 068.2407 292.0486 14.24861612646785
RESURS
1 25394U 98043A 10293.61193720 .00000009 00000-0 21374-4 0 06347
2 25394 098.3029 304.8518 0000807 165.9915 194.1288 14.24212561638206
FENGYUN1
1 25730U 99025A 10293.85001996 .00001011 00000-0 61513-3 0 1641
2 25730 098.7971 255.5964 0020749 273.3503 086.5262 14.08344008589374
OKEAN-0
1 25860U 99039A 10294.70937350 .00000144 00000-0 29499-4 0 1292
2 25860 097.8503 263.2248 0001826 060.7273 299.4117 14.73673253605537
NOAA-16
1 26536U 00055A 10294.73213801 .00000187 00000-0 10113-3 0 427
2 26536 099.1662 315.1567 0010452 346.5422 013.5951 14.12582256519693
NOAA-17
1 27453U 02032A 10294.73760387 .00000172 00000-0 74780-4 0 323
2 27453 098.4165 339.9879 0012470 124.3239 235.9613 14.24201236432713
NOAA-18
1 28654U 05018A 10294.77148696 .00000073 00000-0 40226-4 0 5223
2 28654 098.9645 240.7460 0015191 057.5957 302.7151 14.11398729279299
NOAA-19
1 33591U 09005A 10294.78708181 .00000205 00000-0 11398-3 0 7182
2 33591 098.8002 234.2756 0013399 293.3380 066.6853 14.11095535 87768
HUBBLE
1 20580U 90037B 10292.98334943 .00000613 00000-0 34019-4 0 6641
2 20580 028.4689 145.1032 0003368 092.2778 267.8229 15.01065959923523
ISS
1 25544U 98067A 10295.03824160 .00023707 00000-0 18170-3 0 1217
2 25544 051.6460 301.5784 0007482 108.3355 301.2197 15.71952222683420
CO-58
1 28895U 05043F 10294.36484823 .00000229 00000-0 57111-4 0 7101
2 28895 097.9955 174.5295 0016720 248.4451 111.4953 14.59949493265391
FALCON
1 30776U 07006E 10293.56559731 .00001253 00000-0 92105-4 0 09477
2 30776 035.4345 002.9794 0000984 235.0887 124.9738 15.03888505198942
MAST
1 31126U 07012K 10294.60307246 .00000203 00000-0 56128-4 0 9921
2 31126 097.9247 329.9927 0094107 192.5698 167.3156 14.53631630186427
CAPE1
1 31130U 07012P 10293.67409301 .00000267 00000-0 72094-4 0 00120
2 31130 097.9257 326.2813 0102573 204.0099 155.6291 14.52236365185871
COMPASS
1 32787U 08021E 10294.70159220 .00000947 00000-0 12588-3 0 8097
2 32787 097.8822 357.6309 0014814 232.6674 127.3128 14.82009186134232
AAUSAT2
1 32788U 08021F 10293.61197823 .00000826 00000-0 11024-3 0 08009
2 32788 097.8813 356.7129 0014478 236.3027 123.6872 14.82156984134089
DO-64
1 32789U 08021G 10294.68601801 .00001547 00000-0 19957-3 0 8176
2 32789 097.8896 358.3983 0014686 230.6326 129.3604 14.82375651134245
CO-66
1 32791U 08021J 10293.18960980 .00000113 00000-0 21050-4 0 08018
2 32791 097.8828 356.1395 0014949 236.6394 123.3383 14.81766688133968
RS-30
1 32953U 08025A 10294.57795785 .00000010 00000-0 00000 0 0 1505
2 32953 082.5008 311.0922 0018619 182.4138 177.6857 12.43008521109442
TACSAT-3
1 35001U 09028A 10293.91420505 .00009266 00000-0 20711-3 0 04193
2 35001 040.4529 178.1879 0022237 231.4958 128.3880 15.43190826080056
PHARMSAT
1 35002U 09028B 10294.86567329 .00008508 00000-0 18775-3 0 3852
2 35002 040.4676 170.0898 0024881 240.9519 118.8808 15.43580270 80226
HAWKSAT1
1 35003U 09028C 10294.85590737 .00020101 00000-0 37134-3 0 4181
2 35003 040.4547 160.5280 0023984 262.6505 097.1593 15.48225880 80332
CP6
1 35004U 09028D 10293.92705201 .00024803 00000-0 43494-3 0 04182
2 35004 040.4597 164.0173 0023757 260.2779 099.5384 15.49621702080207
AEROCUB3
1 35005U 09028E 10294.82892201 .00122783 00000-0 12120-2 0 4929
2 35005 040.4653 146.2412 0024605 294.3782 065.4467 15.64322285 80489
CASTOR
1 35694U 09038F 10230.44082147 .07179566 12689-4 99310-4 0 6559
2 35694 051.5930 222.0149 0004218 308.0851 053.0105 16.48877011 61107
METEOR-M
1 35865U 09049A 10294.73282788 .00000176 00000-0 10000-3 0 7615
2 35865 098.7430 347.5275 0003298 013.3967 346.7261 14.21832180 56701
RS-38
1 35869U 09049E 10294.76081492 .00000177 00000-0 10000-3 0 7757
2 35869 098.7427 347.5951 0005400 007.4678 352.6542 14.21991152 56716
/EX
More information about the Keps
mailing list